Date,TemperatureHighF,TemperatureAvgF,TemperatureLowF,DewpointHighF,DewpointAvgF,DewpointLowF,HumidityHigh,HumidityAvg,HumidityLow,PressureMaxIn,PressureMinIn,WindSpeedMaxMPH,WindSpeedAvgMPH,GustSpeedMaxMPH,PrecipitationSumIn
2014-1-1,15.4,10.6,7.8,12.4,7.4,4.0,90,87,83,30.36,30.27,15,4,17,0.00
2014-1-2,14.6,8.2,-7.3,8.1,3.0,-10.6,89,79,69,30.51,30.25,15,2,15,0.00
2014-1-3,20.9,5.4,-15.7,15.3,0.4,-19.7,87,80,72,30.51,29.92,14,3,14,0.00
2014-1-4,30.9,26.5,19.2,28.0,22.7,15.3,96,86,76,30.07,29.84,13,3,13,0.00
2014-1-5,19.0,8.3,-7.9,16.2,0.9,-15.1,90,71,58,30.22,30.06,20,4,20,0.00
2014-1-6,-8.0,-13.4,-18.5,-15.4,-20.5,-25.7,78,70,61,30.39,30.22,20,4,20,0.00
2014-1-7,6.2,-4.5,-12.0,-3.0,-10.3,-17.5,87,76,64,30.42,30.32,7,0,8,0.00
2014-1-8,12.2,-0.7,-11.5,1.4,-6.5,-15.6,88,77,54,30.60,30.36,4,0,5,0.00
2014-1-9,25.8,10.3,-9.4,24.8,7.2,-12.9,96,87,77,30.60,30.19,11,1,11,0.00
2014-1-10,39.1,33.1,26.0,38.2,32.3,24.9,98,97,95,30.19,29.49,16,3,18,1.06
2014-1-11,37.1,33.0,29.2,36.6,30.7,25.9,98,91,81,29.83,29.47,15,2,15,0.00
2014-1-12,42.0,35.1,26.6,35.2,30.6,25.1,94,84,68,29.87,29.59,15,3,15,0.00
2014-1-13,42.5,34.2,26.1,34.8,30.4,23.8,96,86,73,29.80,29.56,10,1,13,0.00
2014-1-14,35.3,27.5,18.8,33.1,23.2,13.7,96,84,74,29.99,29.61,19,4,22,0.01
2014-1-15,21.1,14.2,8.9,15.9,8.5,5.1,87,78,68,30.16,29.84,14,2,14,0.00
2014-1-16,35.9,25.8,13.3,32.5,20.9,7.2,94,82,67,29.84,29.51,20,3,20,0.03
2014-1-17,16.5,11.5,5.0,11.5,6.3,0.7,83,79,72,30.06,29.79,7,2,13,0.00
2014-1-18,20.4,12.9,3.6,17.9,10.3,0.9,92,89,82,30.01,29.74,10,2,17,0.00
2014-1-19,38.2,24.0,4.8,31.7,19.7,2.3,91,84,73,29.95,29.59,16,2,16,0.01
2014-1-20,36.3,28.8,10.9,30.4,23.7,7.0,90,81,72,30.16,29.68,17,2,18,0.00
2014-1-21,10.9,2.2,-5.2,7.2,-4.7,-9.0,86,73,60,30.41,30.16,18,2,18,0.00
2014-1-22,16.3,6.9,-2.2,10.3,0.7,-10.4,85,75,62,30.33,29.97,14,2,14,0.00
2014-1-23,3.5,-2.6,-9.9,-5.8,-10.1,-14.3,82,70,62,30.72,30.33,13,2,17,0.00
2014-1-24,28.9,12.9,-9.8,27.4,6.7,-13.5,94,76,63,30.63,29.53,19,4,19,0.00
2014-1-25,33.8,17.5,5.0,31.5,6.7,-4.5,94,63,42,29.94,29.49,23,4,23,0.00
2014-1-26,33.4,17.9,1.7,24.6,11.9,-5.0,91,77,57,29.99,29.44,30,4,30,0.01
2014-1-27,1.5,-5.1,-12.6,-4.8,-13.0,-18.3,76,68,55,30.54,29.98,18,2,18,0.00
2014-1-28,4.8,-5.3,-16.8,-6.0,-11.9,-21.0,83,73,55,30.55,30.33,14,1,14,0.00
2014-1-29,24.3,11.2,-7.0,12.5,2.2,-10.4,87,68,50,30.33,29.98,15,2,15,0.00
2014-1-30,31.7,26.0,16.9,27.1,18.1,10.0,93,73,55,30.00,29.67,18,5,18,0.00
2014-1-31,17.2,14.1,10.3,12.7,7.8,5.0,85,76,66,30.24,30.00,6,0,6,0.00
2014-2-1,26.1,19.5,14.9,22.4,16.6,11.5,92,89,84,30.17,29.94,9,1,9,0.00
2014-2-2,18.9,10.1,-10.9,15.6,5.1,-14.7,89,80,62,30.39,30.16,7,0,7,0.00
2014-2-3,18.0,-1.0,-20.3,3.8,-8.0,-24.8,85,73,50,30.48,30.39,4,0,4,0.00
2014-2-4,19.7,12.4,-0.9,15.6,7.7,-5.3,92,81,70,30.49,30.19,10,2,10,0.00
2014-2-5,22.7,15.7,0.1,16.9,11.7,-2.9,92,84,67,30.52,30.14,14,2,14,0.00
2014-2-6,6.0,-1.9,-8.7,-3.2,-7.6,-12.3,87,77,62,30.56,30.47,13,1,13,0.00
2014-2-7,12.6,1.1,-11.5,3.2,-4.7,-15.1,86,77,63,30.50,30.40,6,1,6,0.00
2014-2-8,16.0,10.1,3.0,12.6,6.4,-1.8,91,84,77,30.40,30.19,11,1,11,0.00
2014-2-9,16.9,8.9,-1.6,8.5,4.0,-7.2,91,80,65,30.41,30.19,7,1,12,0.00
2014-2-10,10.0,-1.6,-13.8,-3.0,-8.6,-17.5,86,73,52,30.58,30.40,9,0,9,0.00
2014-2-11,10.4,-7.0,-21.1,-2.1,-12.8,-25.8,85,76,55,30.63,30.44,4,0,4,0.00
2014-2-12,23.1,9.6,-5.0,14.2,3.7,-8.8,86,77,55,30.44,30.06,6,1,6,0.00
2014-2-13,34.4,21.2,12.8,29.1,14.0,6.9,87,74,56,30.06,29.57,12,2,27,0.00
2014-2-14,18.7,12.9,7.7,9.9,7.0,3.3,86,77,67,30.05,29.69,11,1,11,0.00
2014-2-15,19.6,9.0,-5.2,13.7,3.9,-8.8,90,80,60,30.17,30.00,10,1,10,0.00
2014-2-16,26.1,18.6,12.5,16.4,13.5,9.1,90,81,63,30.31,30.01,13,1,13,0.00
2014-2-17,31.9,24.1,20.7,29.4,21.3,16.4,93,89,82,30.27,29.74,27,4,27,0.00
2014-2-18,49.7,34.0,14.7,31.9,26.7,12.8,96,76,46,29.96,29.66,17,2,17,0.33
2014-2-19,42.9,34.6,27.0,31.5,28.6,24.5,92,79,62,29.99,29.68,10,1,10,0.00
2014-2-20,45.9,35.9,33.3,45.4,34.2,29.7,98,94,85,29.91,29.18,23,6,27,0.99
2014-2-21,34.7,28.1,23.1,30.7,20.3,13.3,91,73,51,29.88,29.35,28,6,28,0.00
2014-2-22,32.4,24.6,16.2,18.0,13.8,8.4,74,64,44,30.15,29.88,9,1,11,0.00
2014-2-23,25.0,17.4,11.7,11.5,7.1,4.3,76,64,51,30.32,30.14,13,2,13,0.00
2014-2-24,21.7,15.0,8.0,11.0,7.0,4.2,84,71,55,30.38,30.30,12,1,12,0.00
2014-2-25,18.2,11.4,2.6,11.1,3.9,-4.6,89,72,51,30.34,30.25,16,2,16,0.00
2014-2-26,4.1,-1.4,-5.3,-4.4,-7.6,-10.1,79,74,63,30.36,30.26,9,1,9,0.00
2014-2-27,17.2,3.4,-6.2,7.8,-9.2,-14.1,79,56,39,30.27,29.77,11,1,18,0.00
2014-2-28,30.2,15.7,-6.1,21.9,8.0,-10.9,83,71,57,30.26,30.01,20,2,22,0.00
2014-3-1,26.7,16.8,8.8,23.3,11.4,5.2,93,79,56,30.43,30.05,12,2,12,0.00
2014-3-2,8.8,4.8,-2.1,5.4,-6.0,-14.9,86,61,45,30.54,30.40,12,1,13,0.00
2014-3-3,19.7,4.9,-7.9,7.2,-4.9,-17.4,80,63,49,30.61,30.43,8,1,8,0.00
2014-3-4,28.6,18.2,9.2,13.8,9.2,2.3,81,68,48,30.45,30.21,7,1,7,0.02
2014-3-5,23.2,18.6,13.1,17.2,13.6,9.3,91,81,69,30.49,30.29,18,4,18,0.00
2014-3-6,26.1,16.3,9.0,17.4,11.3,6.4,90,81,67,30.46,30.11,9,2,14,0.00
2014-3-7,45.6,33.0,16.8,33.2,25.3,14.5,93,74,50,30.11,29.91,9,1,10,0.08
2014-3-8,36.6,30.0,18.6,33.0,25.5,16.9,94,84,65,30.30,30.02,7,2,13,0.01
2014-3-9,39.6,28.0,14.5,33.6,23.8,12.9,94,85,70,30.29,29.83,12,2,17,0.00
2014-3-10,54.0,44.2,37.0,42.0,36.9,33.1,93,76,57,29.83,29.68,6,2,10,0.00
2014-3-11,46.9,39.6,33.9,37.4,35.2,32.8,97,85,62,29.80,29.66,12,3,20,0.00
2014-3-12,36.4,30.2,20.3,34.0,26.2,15.1,95,85,63,30.15,29.74,12,2,13,0.03
2014-3-13,34.6,23.6,16.7,27.4,19.2,13.0,91,83,73,30.15,30.02,13,2,13,0.01
2014-3-14,51.4,43.4,38.1,36.5,34.1,31.6,82,70,55,29.89,29.60,20,4,20,0.01
2014-3-15,38.9,34.3,28.6,32.8,27.1,24.1,90,75,59,30.27,29.89,17,2,17,0.00
2014-3-16,28.5,22.3,16.5,25.7,15.1,10.4,89,74,56,30.42,30.21,29,7,29,0.00
2014-3-17,38.8,24.8,13.7,27.1,16.4,10.8,91,72,45,30.22,29.80,16,2,16,0.00
2014-3-18,49.4,38.8,30.4,41.3,33.7,26.6,90,82,72,29.86,29.64,23,4,23,0.00
2014-3-19,40.8,37.5,33.7,39.5,34.7,26.3,97,90,73,30.04,29.56,19,2,19,0.16
2014-3-20,47.2,35.8,28.5,32.9,27.8,23.0,94,75,41,30.09,30.00,8,1,9,0.00
2014-3-21,57.0,42.7,30.6,45.7,35.3,27.8,91,76,59,30.02,29.69,19,4,19,0.00
2014-3-22,39.3,34.4,25.7,31.8,23.9,11.3,79,66,44,30.39,29.93,12,2,13,0.00
2014-3-23,31.2,23.3,16.4,12.9,10.3,7.8,78,58,44,30.51,30.38,11,2,12,0.00
2014-3-24,36.8,25.7,16.6,26.3,15.8,10.0,86,67,43,30.43,30.11,8,1,8,0.00
2014-3-25,30.0,24.1,18.3,27.1,12.8,5.5,92,63,40,30.31,30.08,13,3,19,0.00
2014-3-26,39.7,28.4,11.5,25.0,16.3,7.9,89,62,45,30.35,29.96,19,3,19,0.00
2014-3-27,52.2,41.1,34.8,49.7,36.9,24.1,95,86,55,29.97,29.40,19,5,21,0.33
2014-3-28,51.1,38.9,35.8,48.3,35.7,32.0,97,89,79,30.20,29.41,12,2,19,0.09
2014-3-29,47.5,37.5,31.6,32.9,29.3,24.1,90,73,48,30.28,30.19,14,2,16,0.00
2014-3-30,58.9,43.6,28.0,41.0,31.7,20.2,81,64,47,30.29,30.01,14,3,14,0.00
2014-3-31,64.8,52.7,41.1,45.4,40.1,34.9,80,64,45,30.02,29.66,29,6,29,0.00
2014-4-1,56.3,40.1,28.1,45.0,27.6,18.9,72,61,48,30.11,29.67,18,4,26,0.00
2014-4-2,51.3,40.5,31.3,36.3,31.3,27.3,85,70,52,30.18,30.02,20,4,20,0.00
2014-4-3,40.2,37.9,35.1,38.2,35.0,29.0,96,89,74,30.04,29.64,24,7,24,0.34
2014-4-4,44.8,38.6,36.4,44.1,33.7,27.9,98,83,68,30.07,29.46,21,4,21,0.00
2014-4-5,52.9,41.0,27.5,32.7,28.8,24.7,93,64,39,30.24,30.07,8,1,8,0.00
2014-4-6,56.9,47.6,31.3,37.4,34.1,27.5,87,61,39,30.16,29.94,14,2,14,0.00
2014-4-7,61.0,50.0,38.2,44.5,36.2,29.8,83,62,32,29.94,29.62,15,2,15,0.00
2014-4-8,60.7,50.4,40.6,44.0,36.4,30.3,87,62,34,29.95,29.67,14,2,14,0.00
2014-4-9,65.0,51.0,30.6,35.2,32.1,26.9,89,51,27,30.04,29.81,14,2,14,0.00
2014-4-10,65.8,56.6,45.9,42.1,33.0,21.5,61,43,19,29.96,29.66,13,3,13,0.00
2014-4-11,71.4,56.3,34.2,35.1,30.7,25.6,75,41,21,30.06,29.93,15,2,15,0.00
2014-4-12,79.7,63.2,46.8,58.1,46.9,32.3,72,56,47,30.00,29.62,21,4,21,0.00
2014-4-13,67.5,60.6,53.2,60.8,56.2,49.6,98,86,66,29.73,29.35,18,3,18,0.76
2014-4-14,63.2,37.1,28.6,59.8,34.4,26.8,95,90,82,30.05,29.33,19,2,19,0.13
2014-4-15,40.6,31.4,23.2,27.4,21.1,15.8,93,68,42,30.23,30.04,9,1,9,0.07
2014-4-16,54.2,41.5,28.5,33.6,28.7,22.4,83,62,41,30.27,30.05,29,5,29,0.00
2014-4-17,58.2,48.5,40.2,41.1,36.8,31.2,79,64,49,30.27,30.06,10,2,13,0.00
2014-4-18,62.8,47.4,33.4,39.5,34.7,31.1,92,65,33,30.37,30.27,17,2,17,0.00
2014-4-19,70.7,51.9,32.5,40.6,34.5,27.2,84,56,28,30.37,30.17,18,4,18,0.00
2014-4-20,82.1,65.3,48.4,47.7,42.9,39.1,71,47,25,30.21,29.98,12,3,12,0.00
2014-4-21,68.4,62.3,56.3,61.7,53.2,44.7,98,74,46,29.98,29.81,5,1,10,0.33
2014-4-22,60.8,51.7,38.7,48.4,34.0,27.9,75,53,29,30.10,29.83,13,3,16,0.00
2014-4-23,55.9,44.4,30.4,36.2,31.0,26.7,89,62,36,30.20,30.01,15,3,15,0.07
2014-4-24,64.4,50.2,39.1,49.8,40.6,33.0,93,71,43,30.06,29.65,38,5,38,0.22
2014-4-25,70.5,55.5,44.4,50.5,43.9,37.8,95,70,31,29.85,29.59,18,2,18,0.03
2014-4-26,65.2,52.4,40.4,47.1,38.4,31.7,84,61,35,29.98,29.83,25,5,25,0.00
2014-4-27,62.2,51.1,40.7,49.5,41.4,32.7,92,71,47,30.01,29.74,35,10,35,0.49
2014-4-28,55.1,50.7,45.8,51.9,47.1,41.1,94,88,75,29.76,29.48,31,9,31,0.10
2014-4-29,58.6,53.1,48.4,52.4,49.3,45.2,98,87,69,29.64,29.43,19,3,19,0.10
2014-4-30,48.9,44.5,41.2,46.8,40.5,36.9,96,86,73,29.79,29.64,11,2,11,0.00
2014-5-1,47.0,44.1,40.1,43.6,41.3,37.7,96,90,84,29.85,29.68,10,2,14,0.13
2014-5-2,55.2,49.3,44.8,46.2,43.7,41.2,93,81,62,29.85,29.66,11,2,11,0.01
2014-5-3,67.8,56.9,44.8,45.1,41.2,35.9,88,59,33,29.92,29.67,12,3,18,0.00
2014-5-4,57.6,52.6,47.1,41.4,34.9,28.9,73,51,35,30.09,29.91,12,2,16,0.02
2014-5-5,62.0,52.0,42.8,39.0,35.2,29.7,75,54,35,30.04,29.90,25,6,25,0.00
2014-5-6,68.9,54.4,39.5,43.1,38.4,34.0,82,58,31,30.00,29.80,26,7,26,0.00
2014-5-7,84.0,65.9,53.9,66.3,52.0,41.4,83,61,49,29.82,29.67,18,4,18,0.02
2014-5-8,89.2,75.7,66.8,66.4,62.2,58.8,84,65,38,29.81,29.69,14,4,14,0.00
2014-5-9,68.8,63.3,49.7,63.3,53.6,43.5,95,72,49,29.87,29.63,20,4,20,0.07
2014-5-10,79.3,63.6,46.5,51.5,45.5,39.9,90,56,29,29.94,29.83,10,1,10,0.00
2014-5-11,84.3,68.3,56.7,66.6,57.3,45.6,91,69,49,29.91,29.74,15,2,15,0.00
2014-5-12,85.8,75.1,63.2,71.7,67.7,61.8,97,79,57,29.87,29.72,25,3,25,2.11
2014-5-13,64.9,53.9,49.1,64.0,50.0,44.5,97,87,76,30.17,29.76,13,2,15,0.17
2014-5-14,56.6,50.0,43.3,44.9,42.0,38.7,91,75,55,30.22,30.05,9,1,13,0.02
2014-5-15,55.5,47.6,42.0,45.0,42.0,38.0,96,82,55,30.05,29.96,9,1,13,0.22
2014-5-16,52.1,42.3,32.7,43.3,37.3,31.5,97,84,54,30.11,30.00,10,1,10,0.82
2014-5-17,62.2,49.3,34.7,41.2,36.3,30.9,97,65,34,30.18,30.09,10,1,10,0.00
2014-5-18,72.4,58.3,44.0,47.0,40.9,36.0,80,55,30,30.24,30.14,6,1,8,0.00
2014-5-19,69.5,59.0,48.4,54.3,47.8,42.0,88,68,46,30.20,29.88,22,4,22,0.06
2014-5-20,88.2,70.4,61.2,67.6,61.0,53.0,90,74,48,29.89,29.77,18,2,18,0.00
2014-5-21,87.7,76.4,64.1,67.1,57.9,50.2,98,58,33,29.97,29.77,13,1,13,0.02
2014-5-22,74.0,64.0,52.6,52.3,49.3,45.2,86,61,38,30.14,29.97,12,1,12,0.00
2014-5-23,75.7,63.3,48.8,54.5,49.3,46.0,96,64,38,30.20,30.10,8,1,8,0.00
2014-5-24,80.9,63.3,44.2,49.2,45.4,40.6,95,57,26,30.23,30.09,6,0,10,0.00
2014-5-25,87.2,71.5,52.4,59.7,51.6,46.3,81,53,27,30.13,29.95,7,1,7,0.00
2014-5-26,88.2,72.9,63.0,74.7,64.9,59.0,96,78,47,30.02,29.86,11,0,13,0.24
2014-5-27,85.3,74.9,65.5,72.5,68.0,63.4,98,80,61,29.92,29.83,11,1,11,0.03
2014-5-28,80.8,68.7,58.4,69.1,62.1,49.5,97,81,60,30.03,29.88,11,1,11,0.00
2014-5-29,83.0,70.8,55.9,67.8,59.4,49.4,90,68,51,30.10,30.00,11,1,12,0.00
2014-5-30,87.8,79.3,62.8,63.5,56.0,47.4,77,46,33,30.15,30.06,12,2,12,0.00
2014-5-31,91.5,76.6,57.3,58.4,53.6,47.8,84,49,27,30.15,29.97,14,1,15,0.00
2014-6-1,89.2,78.8,71.1,73.7,63.6,52.5,89,61,44,30.02,29.79,15,1,15,0.08
2014-6-2,82.2,74.2,67.8,69.8,67.5,64.5,96,81,58,29.83,29.72,16,1,16,0.35
2014-6-3,82.9,71.9,62.4,65.8,57.6,52.3,92,64,36,29.97,29.82,5,0,7,0.00
2014-6-4,68.0,63.1,56.3,60.8,58.8,54.7,96,86,75,29.91,29.72,8,1,10,0.22
2014-6-5,79.4,66.2,49.8,56.9,49.3,43.1,98,60,29,29.99,29.90,8,1,13,0.00
2014-6-6,88.5,71.6,52.0,57.9,51.4,43.2,86,52,30,29.99,29.90,9,0,9,0.00
2014-6-7,83.0,69.8,59.1,63.4,54.8,41.3,96,62,40,29.97,29.81,12,1,12,0.69
2014-6-8,69.7,64.2,58.1,61.2,57.2,42.1,96,79,55,30.04,29.84,5,0,9,0.01
2014-6-9,81.8,61.5,51.1,60.2,49.6,41.9,86,66,45,30.02,29.93,8,0,8,0.00
2014-6-10,66.3,61.7,57.2,62.1,57.5,49.7,96,87,68,29.91,29.75,8,1,8,0.54
2014-6-11,70.1,62.6,59.3,63.2,60.2,58.4,97,92,78,29.77,29.68,5,0,7,1.54
2014-6-12,77.0,65.2,53.9,66.4,58.1,48.1,99,80,51,29.90,29.74,13,0,13,0.00
2014-6-13,77.7,62.1,47.6,51.2,46.4,40.8,93,60,32,30.02,29.90,10,1,12,0.00
2014-6-14,79.7,66.3,48.7,56.9,49.6,46.6,95,60,34,30.08,29.90,17,2,17,0.00
2014-6-15,85.2,75.9,63.1,69.2,62.4,48.4,83,64,49,29.95,29.71,20,2,20,0.00
2014-6-16,90.5,74.9,61.6,71.9,65.8,60.2,96,76,46,30.03,29.77,5,0,12,0.00
2014-6-17,91.7,79.7,67.9,74.5,69.9,64.2,90,73,51,29.87,29.69,7,1,13,0.04
2014-6-18,80.2,73.5,65.3,72.6,69.5,63.9,96,88,77,30.00,29.81,18,1,18,1.67
2014-6-19,81.8,72.4,64.5,74.1,68.1,63.4,98,87,69,30.06,29.94,12,2,13,2.10
2014-6-20,85.9,75.4,68.5,73.4,69.6,66.7,98,84,57,29.99,29.89,8,0,8,0.06
2014-6-21,87.3,74.1,62.8,76.4,68.9,61.9,97,84,67,29.94,29.79,9,1,9,0.03
2014-6-22,85.0,72.6,61.4,71.6,67.6,60.5,98,86,55,29.90,29.78,11,1,11,0.08
2014-6-23,81.5,72.1,65.2,72.3,68.3,64.5,98,89,69,29.84,29.78,3,0,4,0.03
2014-6-24,87.2,75.7,66.9,71.7,67.8,63.6,98,79,49,29.89,29.81,6,0,6,0.00
2014-6-25,88.0,73.9,63.0,70.5,65.8,62.1,98,78,46,30.01,29.88,12,0,12,0.00
2014-6-26,83.0,70.0,60.5,70.9,65.0,59.5,98,85,60,30.06,29.93,10,2,10,0.01
2014-6-27,87.3,76.6,65.1,72.9,68.2,62.9,93,77,57,29.98,29.89,11,2,11,0.00
2014-6-28,86.0,76.9,68.9,74.6,70.9,65.9,92,82,68,29.97,29.83,18,2,18,0.00
2014-6-29,85.5,75.4,66.8,75.0,70.5,65.9,98,85,68,29.96,29.78,15,1,15,0.33
2014-6-30,89.0,73.0,64.0,79.3,69.8,62.8,97,90,66,29.85,29.57,15,1,15,4.46
2014-7-1,79.8,71.1,63.3,68.2,65.1,60.5,98,83,62,29.79,29.63,10,1,10,0.05
2014-7-2,67.3,62.2,57.8,60.8,58.5,55.7,97,88,71,30.03,29.79,4,0,7,0.20
2014-7-3,77.5,64.9,54.1,63.2,55.8,48.2,98,76,40,30.20,30.03,9,0,9,0.03
2014-7-4,83.3,67.2,51.7,61.5,56.6,50.9,98,73,41,30.30,30.20,6,0,6,0.00
2014-7-5,74.7,67.5,56.5,62.9,59.6,54.2,93,77,58,30.24,30.02,7,0,7,0.00
2014-7-6,87.0,74.3,62.0,76.4,68.8,60.1,95,83,67,30.02,29.69,10,1,11,0.00
2014-7-7,87.0,78.5,70.9,71.8,69.0,64.9,97,75,50,29.74,29.59,7,0,7,0.00
2014-7-8,80.3,72.8,66.6,68.7,66.1,61.0,96,81,58,29.73,29.57,11,1,11,0.15
2014-7-9,80.2,69.7,57.3,62.7,58.4,56.0,97,70,47,30.05,29.82,11,0,11,0.00
2014-7-10,78.2,62.1,54.1,62.3,56.8,53.0,97,85,53,30.16,30.05,6,0,6,0.00
2014-7-11,80.4,74.6,70.4,65.1,63.7,58.6,83,70,51,30.15,30.04,12,1,12,0.00
2014-7-12,84.0,73.1,69.0,75.7,68.9,64.6,97,87,72,30.06,29.79,27,0,27,2.82
2014-7-13,85.0,72.0,63.8,72.6,67.4,63.2,98,87,59,29.95,29.83,8,0,8,0.02
2014-7-14,79.5,68.1,56.9,66.3,58.2,49.9,98,73,42,29.89,29.80,5,1,7,0.01
2014-7-15,69.0,59.2,52.0,57.7,53.6,49.9,97,82,64,29.99,29.88,12,1,12,0.02
2014-7-16,75.3,63.0,49.9,60.7,55.3,49.4,98,78,49,30.04,29.98,7,0,7,0.00
2014-7-17,80.7,66.2,52.1,62.3,57.3,51.3,98,76,46,30.09,30.02,5,0,5,0.01
2014-7-18,81.8,69.0,54.8,65.1,59.6,53.7,97,74,48,30.15,30.05,6,0,6,0.00
2014-7-19,81.0,68.1,54.8,63.5,59.0,53.7,97,75,47,30.08,29.99,9,0,9,0.00
2014-7-20,82.7,70.3,57.2,67.7,62.3,56.1,97,78,55,30.05,29.97,5,0,5,0.00
2014-7-21,87.2,75.0,61.4,72.0,66.7,59.9,95,77,56,30.07,29.99,4,0,8,0.00
2014-7-22,91.9,79.6,69.8,79.9,73.3,66.1,93,82,64,30.01,29.88,7,0,7,0.00
2014-7-23,80.3,71.5,57.6,71.1,60.7,53.9,88,70,48,30.14,29.96,13,1,13,0.00
2014-7-24,78.0,65.0,51.4,61.2,55.1,49.6,95,73,46,30.17,30.00,11,1,11,0.00
2014-7-25,71.6,64.2,57.8,64.2,59.0,51.7,95,83,75,30.07,29.75,24,1,24,0.09
2014-7-26,84.3,74.0,65.6,74.6,68.2,61.3,97,82,69,29.89,29.76,9,0,9,0.01
2014-7-27,81.7,73.1,65.6,71.8,64.5,58.4,98,76,52,29.92,29.74,14,1,14,0.00
2014-7-28,74.2,64.7,56.6,61.3,55.1,51.0,93,73,49,30.10,29.92,13,1,13,0.00
2014-7-29,79.7,66.6,53.6,66.9,58.6,51.8,95,77,53,30.08,29.99,10,0,10,0.02
2014-7-30,80.7,68.6,58.6,64.2,60.4,56.7,96,77,54,30.04,29.98,7,0,7,0.00
2014-7-31,82.3,68.4,55.2,66.8,60.8,54.1,97,79,52,30.04,30.00,7,0,7,0.00
2014-8-1,86.0,69.5,58.2,67.1,61.8,57.0,97,79,44,30.13,30.01,16,0,16,0.65
2014-8-2,85.6,70.1,56.2,69.3,63.0,55.6,98,81,47,30.15,30.05,6,0,6,0.01
2014-8-3,85.5,72.8,60.7,70.8,65.2,59.8,98,79,51,30.14,30.04,6,0,6,0.00
2014-8-4,87.9,72.9,62.2,71.3,65.7,61.0,97,81,51,30.09,29.97,11,0,11,1.44
2014-8-5,81.0,69.9,63.6,70.2,66.3,62.6,98,89,66,30.04,29.98,7,0,7,0.01
2014-8-6,79.5,69.2,61.5,67.7,62.4,56.2,97,80,53,30.07,30.00,7,0,7,0.00
2014-8-7,77.8,68.0,57.3,65.9,60.4,53.2,91,78,59,30.07,29.99,20,2,20,0.00
2014-8-8,79.5,70.4,61.4,66.9,61.8,58.6,93,76,55,30.05,30.00,19,2,19,0.00
2014-8-9,81.0,70.8,61.4,66.0,61.7,58.4,95,74,54,30.08,30.01,11,1,11,0.00
2014-8-10,83.3,73.9,61.6,68.8,64.4,58.5,94,73,53,30.04,29.93,10,0,11,0.00
2014-8-11,85.0,72.6,64.8,70.8,65.2,59.9,96,79,53,29.95,29.77,12,1,12,0.00
2014-8-12,76.7,66.2,58.6,60.9,57.2,54.3,91,74,51,29.98,29.80,10,1,10,0.00
2014-8-13,83.5,68.7,51.6,65.8,59.8,50.2,96,75,51,30.05,29.97,10,0,10,0.00
2014-8-14,77.7,64.5,56.2,62.7,57.1,52.7,97,79,45,30.10,30.01,9,1,10,0.00
2014-8-15,79.7,64.4,48.9,64.4,56.7,47.5,95,78,51,30.08,29.94,6,0,6,0.00
2014-8-16,79.9,68.5,59.0,70.7,64.8,58.2,98,89,70,29.94,29.86,7,0,7,0.00
2014-8-17,80.3,68.8,60.6,70.2,65.1,59.8,98,89,69,29.96,29.89,11,1,11,0.01
2014-8-18,85.3,70.3,60.7,71.4,65.6,59.8,98,86,59,29.92,29.74,7,0,7,0.00
2014-8-19,85.4,74.7,65.0,73.1,68.7,63.5,97,83,57,29.77,29.67,10,1,10,0.04
2014-8-20,86.3,72.6,60.7,72.2,66.7,59.8,98,83,56,29.92,29.77,7,0,7,0.00
2014-8-21,79.0,73.1,69.0,75.5,71.4,66.9,97,94,87,29.94,29.83,9,0,9,0.59
2014-8-22,84.6,75.8,69.6,77.0,73.2,69.0,98,92,76,29.94,29.83,8,0,8,0.00
2014-8-23,80.1,73.0,67.9,76.9,71.5,67.0,98,95,85,30.01,29.87,8,0,8,0.59
2014-8-24,87.5,76.7,66.6,80.1,73.4,66.0,98,90,76,29.97,29.90,11,2,11,0.00
2014-8-25,85.6,75.6,67.0,79.2,72.8,64.1,98,91,68,30.06,29.91,9,1,17,0.47
2014-8-26,81.8,72.2,66.8,73.8,68.2,64.8,98,88,66,30.13,29.97,12,0,12,0.32
2014-8-27,81.7,70.6,63.6,66.9,64.1,60.5,96,81,53,30.13,30.05,6,0,8,0.00
2014-8-28,76.8,67.8,61.1,67.0,63.3,60.2,97,87,64,30.11,29.97,13,2,13,0.31
2014-8-29,86.3,73.3,66.8,76.2,69.6,65.6,97,89,66,29.98,29.80,14,1,14,0.16
2014-8-30,81.9,72.1,65.5,71.6,68.2,64.3,98,88,65,29.88,29.78,10,1,10,0.18
2014-8-31,87.5,74.5,61.1,73.2,68.1,60.5,99,83,56,29.92,29.78,7,0,7,0.00
2014-9-1,82.0,73.4,66.7,71.0,68.6,65.2,97,86,66,29.85,29.67,11,1,11,0.02
2014-9-2,80.8,70.5,60.3,67.1,63.6,59.2,98,81,54,29.95,29.80,11,0,11,0.12
2014-9-3,85.7,71.4,54.6,71.1,63.7,54.0,98,79,56,30.02,29.88,6,1,8,0.01
2014-9-4,84.2,74.3,68.2,76.0,70.3,66.7,96,88,67,29.99,29.80,13,2,16,0.67
2014-9-5,85.3,73.5,59.9,76.1,70.0,54.9,97,89,68,30.09,29.88,6,1,11,0.40
2014-9-6,76.0,63.2,53.9,58.2,55.4,51.7,97,78,48,30.20,30.07,5,0,8,0.00
2014-9-7,79.7,63.6,49.9,63.2,56.1,49.4,98,79,44,30.21,30.09,7,0,7,0.00
2014-9-8,76.8,64.1,51.3,61.1,56.4,50.5,98,78,49,30.13,29.95,9,0,10,0.01
2014-9-9,81.3,69.2,61.2,69.6,64.4,57.8,97,86,65,29.99,29.80,14,0,14,0.19
2014-9-10,75.5,67.7,54.1,72.8,64.9,49.6,98,91,76,29.91,29.47,17,2,19,1.11
2014-9-11,53.9,50.4,46.6,49.6,45.7,42.9,94,84,76,30.32,29.91,6,0,6,0.00
2014-9-12,52.4,46.8,39.3,45.7,43.9,38.5,97,90,72,30.37,30.29,8,0,8,0.11
2014-9-13,61.7,47.0,37.7,46.6,41.0,37.2,98,82,46,30.41,30.31,5,0,9,0.01
2014-9-14,67.8,52.0,36.7,51.4,44.7,35.9,98,79,48,30.34,30.16,6,0,7,0.00
2014-9-15,61.6,52.4,44.6,56.4,50.2,43.8,98,92,82,30.21,30.08,9,0,9,0.06
2014-9-16,68.0,50.5,37.2,51.5,44.7,36.7,98,83,45,30.25,30.09,5,0,5,0.01
2014-9-17,72.6,55.2,39.4,57.7,48.8,38.6,98,81,51,30.09,29.96,4,0,4,0.00
2014-9-18,71.0,57.5,45.1,57.2,51.7,44.3,98,83,54,30.15,30.03,8,1,10,0.00
2014-9-19,75.6,63.3,50.5,57.3,53.8,49.6,98,74,46,30.15,29.90,9,1,10,0.01
2014-9-20,75.0,67.1,60.8,69.8,63.2,55.9,96,88,78,29.92,29.72,9,1,14,0.29
2014-9-21,67.6,58.6,50.3,62.3,53.4,47.2,97,84,59,30.16,29.73,10,1,11,0.01
2014-9-22,70.5,54.3,39.2,51.7,46.3,38.1,98,77,44,30.32,30.16,4,0,5,0.01
2014-9-23,75.5,58.8,41.6,55.0,48.8,40.8,98,73,41,30.35,30.24,8,0,9,0.00
2014-9-24,75.8,62.6,50.6,59.8,52.0,48.2,93,70,42,30.34,30.22,10,1,10,0.00
2014-9-25,79.5,65.1,54.2,58.3,53.5,50.8,93,69,37,30.28,30.17,9,0,9,0.00
2014-9-26,82.3,67.2,54.4,64.0,57.1,51.5,92,72,47,30.24,30.15,6,0,8,0.00
2014-9-27,83.3,68.0,56.0,62.9,56.8,53.6,93,70,41,30.23,30.10,7,0,7,0.00
2014-9-28,82.9,66.8,52.6,64.5,57.3,51.2,97,74,44,30.16,30.04,4,0,6,0.00
2014-9-29,83.8,65.5,51.2,64.8,57.1,50.1,97,77,46,30.04,29.90,10,0,10,0.00
2014-9-30,62.5,53.0,47.9,51.1,47.1,43.8,92,81,59,30.06,29.98,10,1,10,0.00
2014-10-1,74.6,63.9,47.0,59.9,55.0,45.4,94,74,59,30.00,29.82,18,2,18,0.00
2014-10-2,71.3,66.1,62.4,65.6,62.7,58.1,97,89,79,29.85,29.58,11,0,11,0.04
2014-10-3,62.4,51.9,41.6,61.5,46.3,29.5,98,82,59,29.85,29.50,14,1,15,0.92
2014-10-4,49.2,40.6,34.7,39.0,34.9,29.6,96,81,61,29.80,29.72,11,1,13,0.08
2014-10-5,55.4,44.2,33.6,44.9,37.7,32.1,96,80,51,29.78,29.63,10,0,12,0.00
2014-10-6,59.0,50.6,44.3,48.3,41.7,36.8,96,74,46,29.67,29.56,8,1,10,0.02
2014-10-7,65.4,54.0,44.1,51.6,46.4,39.3,93,77,55,29.88,29.62,9,0,9,0.00
2014-10-8,65.9,52.9,39.6,44.2,40.2,35.2,95,66,35,30.06,29.88,14,1,14,0.00
2014-10-9,63.5,53.3,40.3,45.7,38.2,31.4,88,60,32,30.15,30.04,7,0,7,0.00
2014-10-10,58.7,47.9,35.7,43.3,38.9,33.5,94,73,47,30.21,30.13,10,1,10,0.00
2014-10-11,60.5,45.3,31.0,43.4,35.3,29.9,97,72,40,30.28,30.15,9,0,9,0.00
2014-10-12,62.2,49.6,36.6,54.0,43.9,34.0,97,82,55,30.15,29.85,14,1,16,0.05
2014-10-13,66.9,58.6,54.5,65.1,57.4,53.7,98,96,90,29.86,29.45,20,2,20,1.02
2014-10-14,64.5,58.8,50.7,61.7,57.1,49.6,97,94,86,29.68,29.43,8,1,12,0.36
2014-10-15,52.4,50.8,49.3,51.4,49.6,48.2,97,96,92,29.87,29.68,8,1,8,0.03
2014-10-16,63.2,54.2,48.6,55.7,51.4,48.1,98,91,73,29.88,29.61,6,0,6,0.00
2014-10-17,56.7,52.3,46.1,51.2,47.9,44.5,95,85,74,29.93,29.58,11,1,11,0.01
2014-10-18,50.2,44.8,32.9,45.2,40.5,31.9,96,85,69,30.23,29.93,9,0,9,0.00
2014-10-19,59.9,43.5,30.2,46.0,38.4,29.4,98,84,57,30.23,29.90,8,1,8,0.00
2014-10-20,65.2,53.6,45.0,49.5,44.8,41.0,95,74,49,30.02,29.82,12,1,12,0.00
2014-10-21,55.4,46.5,36.3,43.0,39.9,34.1,94,79,58,30.29,30.02,12,1,12,0.00
2014-10-22,59.1,43.9,29.9,43.8,36.0,29.0,97,77,46,30.38,30.24,11,1,11,0.00
2014-10-23,59.7,48.2,35.6,49.3,42.0,33.5,93,80,59,30.25,30.05,11,1,16,0.07
2014-10-24,66.0,53.7,41.1,55.6,48.3,40.0,98,83,54,30.08,29.92,6,0,6,0.00
2014-10-25,71.9,60.1,47.8,56.6,44.5,31.7,97,63,23,30.01,29.90,16,1,16,0.00
2014-10-26,66.5,51.3,32.7,39.1,32.9,27.8,92,54,24,30.05,29.80,11,1,11,0.00
2014-10-27,78.1,66.4,54.2,62.2,55.1,35.4,87,68,48,29.80,29.53,9,2,11,0.00
2014-10-28,65.9,52.7,44.1,57.0,41.0,36.0,79,65,49,29.98,29.62,16,2,16,0.00
2014-10-29,49.4,43.2,30.7,36.3,33.4,28.6,94,69,56,30.16,29.98,10,1,10,0.00
2014-10-30,51.9,40.5,28.1,40.0,34.8,26.9,96,81,59,30.17,30.07,4,0,4,0.00
2014-10-31,46.2,37.8,31.1,40.1,25.5,20.6,80,61,47,30.45,30.08,24,4,24,0.00
2014-11-1,44.7,34.0,26.0,29.4,24.7,20.2,82,69,53,30.52,30.41,11,1,11,0.00
2014-11-2,52.6,40.7,27.5,31.9,26.8,23.5,89,61,33,30.43,30.15,11,3,13,0.00
2014-11-3,66.2,54.8,41.6,50.7,39.2,27.3,82,56,47,30.15,29.90,15,3,15,0.01
2014-11-4,57.7,48.0,40.6,56.5,43.2,37.6,97,84,67,30.10,29.83,14,2,14,0.20
2014-11-5,59.0,47.3,33.6,44.1,38.6,32.4,97,75,43,30.15,29.83,16,2,16,0.00
2014-11-6,48.5,42.1,36.9,44.0,34.1,26.7,88,73,63,30.26,29.81,20,3,20,0.00
2014-11-7,42.4,37.3,25.5,33.8,28.9,23.2,92,72,58,30.26,29.78,11,2,12,0.00
2014-11-8,47.4,42.0,35.1,40.1,31.9,26.4,92,68,47,30.01,29.74,17,2,17,0.05
2014-11-9,52.2,40.1,32.7,38.1,31.6,27.1,82,72,51,29.98,29.75,15,2,15,0.00
2014-11-10,63.6,51.4,40.4,47.4,42.1,35.9,85,71,54,29.81,29.45,14,3,24,0.00
2014-11-11,54.2,37.1,28.3,45.8,32.4,20.7,94,83,71,30.20,29.54,15,3,15,0.30
2014-11-12,28.1,25.9,23.4,21.3,17.2,14.1,77,69,59,30.37,30.21,11,2,11,0.00
2014-11-13,28.7,24.5,21.6,21.7,18.0,14.6,88,76,56,30.39,30.34,10,2,13,0.00
2014-11-14,29.4,21.6,14.1,18.3,15.0,11.7,90,76,56,30.43,30.38,4,0,6,0.00
2014-11-15,29.2,21.5,12.3,20.7,16.1,10.1,94,81,55,30.43,30.24,3,0,6,0.00
2014-11-16,29.5,23.3,12.7,26.8,20.7,8.7,94,90,84,30.25,29.97,8,1,8,0.00
2014-11-17,16.0,12.2,9.1,9.7,6.7,4.2,89,78,64,30.09,29.93,18,3,18,0.00
2014-11-18,18.1,13.5,7.2,13.4,7.5,3.1,85,77,62,30.18,30.07,13,2,13,0.00
2014-11-19,27.9,22.7,14.0,21.3,15.3,8.4,81,73,66,30.09,29.82,20,2,20,0.00
2014-11-20,25.7,18.8,9.7,14.4,10.2,4.5,85,70,47,30.40,30.07,17,2,17,0.00
2014-11-21,33.8,21.5,3.6,23.5,8.6,0.9,89,61,34,30.50,30.17,15,2,15,0.00
2014-11-22,52.8,41.7,32.8,49.7,39.4,23.5,97,92,67,30.18,29.81,11,2,11,0.20
2014-11-23,51.5,49.0,47.3,49.3,47.5,44.4,98,95,88,29.81,29.10,14,2,14,0.55
2014-11-24,47.5,31.8,20.8,47.0,30.5,17.2,98,95,84,29.89,29.08,16,3,17,0.13
2014-11-25,24.5,18.0,10.2,19.2,14.8,7.5,94,87,76,30.24,29.89,11,1,11,0.00
2014-11-26,27.0,20.1,9.2,23.5,17.6,6.9,95,90,84,30.29,30.15,12,2,12,0.00
2014-11-27,25.2,18.7,8.3,21.5,14.9,6.0,93,85,71,30.48,30.29,12,1,12,0.00
2014-11-28,33.9,24.7,11.8,31.0,21.0,8.4,91,86,80,30.45,29.86,20,2,20,0.00
2014-11-29,47.8,40.6,31.8,45.0,38.0,29.4,96,90,83,29.86,29.58,15,3,15,0.13
2014-11-30,45.1,34.3,21.5,43.8,31.1,13.1,98,88,68,30.39,29.62,12,1,12,0.00
2014-12-1,21.4,16.2,10.7,13.5,5.7,0.9,77,63,48,30.71,30.39,12,2,12,0.00
2014-12-2,32.5,24.4,13.5,26.5,19.5,9.1,90,82,71,30.59,30.10,13,1,13,0.00
2014-12-3,35.1,26.9,20.7,23.3,19.3,14.3,91,74,52,30.42,30.10,12,1,12,0.00
2014-12-4,33.2,28.2,21.3,28.3,20.7,14.9,87,73,61,30.45,30.27,12,2,12,0.00
2014-12-5,37.0,34.0,31.0,34.3,31.8,28.3,97,92,87,30.29,30.18,10,1,10,0.00
2014-12-6,38.7,32.2,23.6,32.4,27.5,21.0,94,83,64,30.69,30.29,7,2,13,0.00
2014-12-7,34.6,29.0,21.8,28.7,25.1,19.5,93,85,74,30.67,30.28,16,2,16,0.00
2014-12-8,37.2,32.9,30.5,36.5,31.3,28.2,98,94,90,30.28,30.01,12,2,12,0.04
2014-12-9,34.7,32.3,31.1,30.9,28.8,26.8,93,87,82,30.44,30.17,12,1,12,0.00
2014-12-10,31.3,28.0,24.6,27.1,24.0,21.2,87,85,82,30.46,30.33,8,1,8,0.00
2014-12-11,31.4,25.4,21.3,26.1,22.3,19.9,96,88,79,30.35,30.28,6,1,7,0.00
2014-12-12,34.4,30.1,22.6,33.1,29.0,20.9,97,96,93,30.39,30.27,4,0,8,0.01
2014-12-13,45.5,39.4,31.2,44.0,38.2,30.2,98,95,93,30.27,30.09,2,0,4,0.00
2014-12-14,48.8,44.7,40.7,48.3,44.2,39.9,98,98,96,30.11,29.98,8,1,8,0.01
2014-12-15,46.0,44.5,42.3,45.7,44.0,41.7,99,98,97,29.98,29.64,22,4,22,0.16
2014-12-16,42.6,36.1,25.3,42.2,34.0,21.7,99,92,83,30.22,29.63,15,2,18,0.18
2014-12-17,25.2,22.6,17.5,21.8,18.5,15.2,93,84,77,30.36,30.21,14,1,14,0.00
2014-12-18,25.3,21.3,15.2,21.1,18.1,13.6,95,87,79,30.38,30.29,4,0,4,0.00
2014-12-19,28.0,26.5,24.2,24.8,23.3,20.9,91,88,85,30.38,30.31,4,0,4,0.00
2014-12-20,32.2,29.2,26.0,29.5,26.3,24.0,93,89,80,30.32,30.25,6,0,6,0.00
2014-12-21,38.1,34.5,31.4,33.9,31.6,29.4,93,89,85,30.25,29.98,19,3,19,0.00
2014-12-22,40.9,35.4,32.2,40.2,34.0,30.1,98,95,88,29.98,29.53,17,4,17,0.20
2014-12-23,45.1,41.2,33.6,43.8,38.4,32.1,98,90,80,29.77,29.50,9,2,13,0.14
2014-12-24,36.2,34.5,32.3,34.8,33.3,30.8,98,95,92,29.73,29.54,11,1,11,0.02
2014-12-25,45.2,37.6,32.3,36.9,33.2,28.9,92,84,68,29.99,29.72,13,3,13,0.00
2014-12-26,51.0,43.6,37.3,42.3,38.8,34.6,92,83,69,30.03,29.96,10,2,10,0.00
2014-12-27,48.2,37.8,26.0,46.6,34.6,21.4,95,88,81,30.18,29.91,20,3,20,0.02
2014-12-28,33.5,23.7,17.6,21.1,18.0,15.5,92,80,53,30.30,30.16,11,0,11,0.00
2014-12-29,28.7,24.4,17.1,22.0,17.5,9.9,91,75,56,30.58,30.30,10,1,10,0.00
2014-12-30,17.1,11.2,5.2,10.1,1.5,-4.5,83,65,44,30.79,30.58,11,1,11,0.00
2014-12-31,18.5,10.2,0.7,8.2,1.8,-3.6,82,69,54,30.71,30.22,19,2,19,0.00
2015-1-1,33.1,22.5,13.3,20.0,14.4,7.9,82,71,57,30.22,30.02,13,2,13,0.00
2015-1-2,34.0,24.2,13.0,25.0,19.5,11.1,94,83,67,30.36,30.16,7,0,7,0.00